sat.trackr.live / text

‹ back to catalog

STARLINK-35069

NORAD 66268 · 2025-247D

PAYLOAD ACTIVE UNKNOWN

§ Identity

Operator
Country
US
Launch date
2025-10-31
Launch site
AFWTR
Launch vehicle
Mass (kg)
RCS (m²)

Purposes: comms

External: N2YO · Heavens-Above · Gunter

§ Orbital elements

Epoch: 2026-05-25T04:41:09.688128Z

Period
94.10 min
Inclination
53.1590°
Eccentricity
0.0001166
Mean motion
15.30208478 rev/d
Perigee alt
474.4 km
Apogee alt
476.0 km
Semi-major
6,853.3 km
B*
4.3015e-4
RAAN
196.3237°
Arg perigee
79.6506°
Mean anomaly
280.4626°
Rev number
3,274

§ Raw data

STARLINK-350691 66268U 25247D   26145.19525102  .00012405  00000+0  43015-3 0  99982 66268  53.1590 196.3237 0001166  79.6506 280.4626 15.30208478 32743

JSON: /api/v1/satellites/66268 · /tle

For live sub-satellite position, see the globe view (requires WebGL).

§ Visibility from observer

Set your observer location to see the next 7 days of passes ≥ 10°. The values pass through the URL so the page stays shareable.

No JS? Fill the form by hand. The geolocation button needs JavaScript.